Starlink 5830

operational
NORAD ID: 57065 Int'l Des: 2023-088 Owner: SPXS Country: US Constellation: starlink
LEOCIRCULAR

About Starlink 5830

Description loading...

Live Position

Loading 3D Globe...

Upcoming Passes

Altitude History

Altitude vs Time

uPlot chart will show altitude changes over time

Two-Line Element Set

1 57065U 23088T 25305.11206065 -.00000302 00000-0 -72901-5 0 9991
2 57065 43.0033 86.5093 0001328 272.9029 87.1661 15.02534434130042
Epoch: Nov 1, 2025 • Age: 32 hours

Current Status

Altitude 562.8 km
Velocity 7.59 km/s
Sub-Earth Point 41.54°N, 19.57°W
Launch Date Jun 22, 2023
Age 2.3 years
Type internet

Technical Details

Classification Payload
Mass 305.00 kg
Dry Mass 290.00 kg
Total Mass 305.00 kg
Length 0.20 m
Diameter 2.80 m
Span 9.00 m
Shape Box + pan
Manufacturer SPXS
Bus Type Starlink
Phase Status In Orbit
Owner/State SPXS/US

Large Constellations

Loading constellations...